www.pogodaiklimat.ru

Погода и климат >> Архив погоды >> Россия >> Чечня >> Грозный


АРХИВ ПОГОДЫ в Грозном

Время (UTC), дата Ветер
(напр.,м/с)
 
Видим.   Явления Облачность Т
(С)
Тd
(С)
f
(%)
Тe
(С)
Тes
(С)
Комфортность P
(гПа)
Po
(гПа)
Тmin
(С)
Tmax
(С)
R
(мм)
R24
(мм)
S
(см)
09 15.08 В 3 20 км ясно +28.2 +17.4 52 +32 +46 душно 1010.1 981.1
12 15.08 В 3 20 км ясно +28.8 +18.1 52 +33 +41 очень
душно
1008.9 980.0
15 15.08 В 3 20 км ясно +25.8 +17.0 58 +30 +30 душно 1009.0 979.8 +29.5
18 15.08 ЮВ 2 10 км ясно +21.1 +19.5 91 +26 +26 душно 1009.5 979.9
21 15.08 штиль 0 10 км 10/0
[Ac trans]
+20.6 +19.8 95 +25 +25 комфорт 1008.9 979.3
00 16.08 З 1 10 км ливневой дождь 10/10 600 м
[Sc]
+20.6 +19.6 94 +26 +26 душно 1008.2 978.6
03 16.08 З 1 20 км {ливн. осадки} 10/10 1000 м
[Sc]
+20.2 +18.9 92 +25 +25 комфорт 1008.5 978.8 +20.1 1
06 16.08 З 2 20 км {ливн. осадки} 10/10 1000 м
[Sc]
+22.5 +19.1 81 +28 +28 душно 1009.0 979.5
09 16.08 ЮВ 2 20 км ясно +27.4 +19.5 62 +33 +50 очень
душно
1007.4 978.5
12 16.08 В 2 20 км ясно +31.0 +19.9 52 +37 +47 очень
душно
1004.8 976.3
15 16.08 В 3 20 км ясно +27.7 +19.2 60 +33 +34 очень
душно
1003.9 975.1 +31.7
18 16.08 штиль 0 10 км 3/0
[Ac lent]
+22.6 +18.2 76 +28 +28 душно 1006.8 977.4
21 16.08 ЮВ 1 10 км 9/3 600 м
[Sc Ac cast]
+21.2 +18.8 86 +26 +26 душно 1005.7 976.2
00 17.08 ЮВ 1 10 км 10/10 600 м
[Sc]
+21.1 +18.8 87 +25 +25 комфорт 1006.0 976.5
03 17.08 штиль 0 20 км 3/0
[Ac lent]
+21.6 +18.8 84 +26 +27 душно 1006.1 976.6 +20.5
06 17.08 З 1 20 км 9/9 1000 м
[Sc]
+24.7 +19.5 73 +30 +31 очень
душно
1007.1 977.9
09 17.08 С 2 20 км 8/5 1000 м
[Sc Ac lent]
+29.1 +20.4 59 +36 +40 очень
душно
1006.5 977.7
12 17.08 С 2 20 км 5/0
[Ac lent]
+31.0 +20.0 52 +37 +43 очень
душно
1006.2 977.6
15 17.08 З 2 20 км 10/10 1000 м
[Sc]
+30.0 +19.5 53 +36 +36 очень
душно
1006.6 977.9 +31.9
18 17.08 З 3 4000 м гроза, ливневой дождь 10/10 300 м
[Cb cap]
+22.8 +21.4 92 +30 +30 очень
душно
1009.9 980.4
21 17.08 Ю 1 10 км {гроза, ливн. осадки} 10/10 600 м
[Sc]
+22.5 +21.2 92 +30 +30 очень
душно
1009.9 980.4
00 18.08 штиль 0 10 км {гроза, ливн. осадки} 10/10 600 м
[Sc]
+22.2 +21.4 95 +29 +29 очень
душно
1007.9 978.5
03 18.08 В 2 20 км 8/0
[Ac lent]
+21.8 +19.5 87 +27 +27 душно 1006.4 977.0 +21.6 4
06 18.08 СЗ 3 20 км 8/3 1000 м
[Sc Ac lent]
+25.6 +20.5 73 +32 +34 очень
душно
1006.3 977.2 +21.5
09 18.08 З 2 20 км 9/9 1000 м
[Sc]
+25.7 +20.3 72 +32 +33 очень
душно
1006.6 977.5
12 18.08 З 3 20 км 10/10 1000 м
[Sc]
+27.9 +20.5 64 +35 +35 очень
душно
1006.4 977.6
15 18.08 ЮЗ 1 20 км 10/10 1000 м
[Sc]
+26.4 +20.8 71 +33 +33 очень
душно
1007.0 978.0 +29.9
18 18.08 ЮЗ 2 10 км 9/4 600 м
[Sc Ac cast]
+25.4 +20.9 76 +32 +32 очень
душно
1009.5 980.3
21 18.08 штиль 0 10 км ясно +23.8 +20.3 81 +29 +29 душно 1010.4 980.9
00 19.08 В 1 10 км 5/0
[Ac lent]
+21.8 +20.1 90 +27 +27 душно 1011.2 981.6
03 19.08 ЮВ 1 20 км 5/0
[Ac lent]
+21.9 +19.7 87 +27 +28 душно 1012.4 982.8 +21.0
06 19.08 З 1 20 км 6/3 1000 м
[Cu hum Ac lent]
+27.0 +19.8 65 +33 +38 очень
душно
1012.9 983.8
09 19.08 ЮЗ 2 20 км 4/0
[Ac lent]
+30.9 +19.5 51 +37 +48 очень
душно
1012.5 983.7
12 19.08 СЗ 1 20 км 10/10 1000 м
[Sc]
+31.4 +19.2 48 +37 +37 очень
душно
1012.4 983.7
15 19.08 ЮЗ 2 20 км 10/10 1000 м
[Sc]
+29.8 +20.7 58 +37 +37 очень
душно
1012.7 983.9 +32.4
18 19.08 В 1 10 км 9/9 600 м
[Sc]
+25.3 +21.3 79 +32 +32 очень
душно
1014.5 985.2
21 19.08 В 1 10 км 8/0
[Ac lent]
+23.7 +20.9 84 +30 +30 очень
душно
1014.7 985.2
00 20.08 В 1 10 км 5/0
[Ac lent]
+22.1 +20.1 88 +28 +28 душно 1014.5 984.9
03 20.08 штиль 0 20 км ясно +21.7 +20.1 91 +27 +28 душно 1015.2 985.5 +21.0
06 20.08 СЗ 2 20 км ясно +28.2 +20.7 64 +35 +44 очень
душно
1015.1 986.0
09 20.08 ЮВ 2 20 км ясно +33.3 +20.0 46 +40 +56 опасность
солнечного
удара
1013.6 985.1
12 20.08 В 3 20 км 3/0
[Ac lent]
+34.3 +19.2 41 +39 +45 очень
душно
1012.2 983.7
15 20.08 В 3 20 км 8/0
[Ac lent Cc]
+31.0 +15.6 39 +33 +34 душно 1012.9 984.1 +34.9
18 20.08 В 1 10 км ясно +24.8 +17.6 64 +29 +29 душно 1014.4 985.0
21 20.08 В 1 10 км ясно +24.3 +18.9 72 +29 +29 душно 1013.2 983.8
00 21.08 В 1 10 км ясно +22.1 +19.3 84 +28 +28 душно 1013.8 984.2
03 21.08 штиль 0 20 км ясно +21.9 +19.5 86 +27 +28 душно 1014.1 984.4 +21.1
06 21.08 СЗ 2 20 км ясно +29.1 +19.3 56 +35 +44 очень
душно
1013.3 984.4
09 21.08 С 2 20 км ясно +33.2 +19.9 46 +39 +55 опасность
солнечного
удара
1011.4 982.9
12 21.08 В 2 20 км ясно +34.8 +19.1 40 +40 +49 очень
душно
1009.8 981.4
15 21.08 В 4 20 км ясно +31.5 +10.5 27 +31 +31 жарко 1009.6 980.9 +35.5
18 21.08 С 1 10 км ясно +24.2 +12.9 49 +26 +26 жарко 1011.0 981.5
21 21.08 В 1 10 км ясно +19.8 +14.4 71 +23 +23 комфорт 1011.1 981.2
00 22.08 штиль 0 10 км ясно +18.7 +16.3 86 +20 +20 тепло 1010.6 980.7
03 22.08 штиль 0 20 км ясно +18.9 +18.2 96 +20 +21 тепло 1011.4 981.5 +18.5
06 22.08 СЗ 2 20 км ясно +25.2 +18.6 67 +30 +39 душно 1010.4 981.2

 

Местоположение метеостанции Грозный (Чечня, Россия): широта 43.25 долгота 45.72 высота над уровнем моря 258 м.

В архиве по умолчанию представлена погода в Грозном за последнюю неделю. Архивные данные за месяц целиком и за предыдущие месяцы, начиная с января 2011 года, Вы можете получить, выбрав интересующий диапазон дат из раскрывающегося списка и нажав кнопку "Ввод!".


*Определитесь, кто Вы:
робот инопланетянин человек

Внимание! Время в таблицах - всемирное. Для получения местного времени необходимо прибавить поправку, которая равна 3 ч.

Смотрите также архив погоды в соседних городах и на ближайших метеорологических станциях:

Погода в Гудермесе (Чечня, Россия) (34 км)
Погода в Шатое (Чечня, Россия) (41 км)
Погода в Наурской (Чечня, Россия) (55 км)
Погода в Шелковской (Чечня, Россия) (61 км)
Погода в Хасавюрте (Дагестан, Россия) (70 км)
Погода в Назрани (Ингушетия, Россия) (71 км)
Погода в Владикавказе (Северная Осетия, Россия) (88 км)
Погода в Бабаюрте (Дагестан, Россия) (94 км)
Погода в Терекли-Мектебе (Дагестан, Россия) (99 км)
Погода в Моздоке (Северная Осетия, Россия) (100 км)

Пояснения к столбцам:

Ветер - указаны скорость ветра в м/с - средняя за 10 мин, порывы в срок и между сроками (в фигурных скобках) и направление, откуда дует ветер: С - северный, СВ - северо-восточный, В - восточный, ЮВ - юго-восточный, Ю - южный, ЮЗ - юго-западный, З - западный, СЗ - северо-западный.
Видимость - горизонтальная дальность видимости в метрах или километрах. При видимости от 1 до 10 км при отсутствии осадков обычно наблюдается дымка, при ухудшении видимости до 1 км и менее - туман. В сухую погоду видимость может ухудшаться дымом, пылью или мглою.
Явления - указаны атмосферные явления, наблюдавшиеся в срок или в последний час перед сроком; фигурными скобками обозначены явления, наблюдавшиеся между сроками (за 1-3 часа до срока); квадратными скобками обозначены град или гололедные отложения с указанием их диаметра в мм.
Облачность - указаны через наклонную черту общая и нижняя облачность в баллах и высота нижней границы облаков в метрах; квадратными скобками обозначены формы облаков: Ci - перистые, Cs - перисто-слоистые, Cc - перисто-кучевые, Ac - высококучевые, As - высокослоистые, Sc - слоисто-кучевые, Ns - слоисто-дождевые, Cu - кучевые, Cb - кучево-дождевые. Подробнее классификацию облаков см. в Атласе облаков (PDF).
T - Температура воздуха - температура, измеренная на высоте 2 м над землей.
Td - Температура точки росы - температура, при понижении до которой содержащийся в воздухе водяной пар достигнет насыщения.
f - Относительная влажность воздуха - влажноcть воздуха, измеренная на высоте 2 м над землей.
Te - Эффективная температура - температура, которую ощущает одетый по сезону человек в тени. Характеристика душности погоды. При расчете учитывается влияние влажности воздуха и скорости ветра на теплоощущения человека.
Tes - Эффективная температура на солнце - температура, которую ощущает человек, с поправкой на солнечный нагрев. Характеристика знойности погоды. Зависит от высоты солнца над горизонтом, облачности и скорости ветра. Ночью, в пасмурную погоду, а также при ветре 12 м/с и более поправка равна нулю.
P - Атмосферное давление - приведенное к уровню моря атмосферное давление.
Po - Атмосферное давление - измеренное на уровне метеостанции атмосферное давление.
Tmin - Минимальная температура - минимум температуры воздуха на высоте 2 м над землей.
Tmax - Максимальная температура - максимум температуры воздуха на высоте 2 м над землей.
R - Количество осадков - Количество выпавших осадков за период времени, мм. При наведении курсора мыши на число - период времени, за который выпало указанное количество осадков.
R24 - Количество осадков - Количество выпавших осадков за 24 часа, мм.
S - Снежный покров - Высота снежного покрова, см. При наведении курсора мыши на число - состояние снежного покрова и степень покрытия местности в баллах.